COSMOS 1579 FUEL CORE, 15330

Orbit data source: Space-Track

COSMOS 1579 FUEL CORE, 15330 is space debris in LEO originally from a launch on Fri, 29 Jun 1984 UTC launched from the Tyuratam Missile And Space Complex (TTMTR). Debris objects in space refer to the collection of defunct objects orbiting the Earth. Examples of debris include non-operational satellites, rocket bodies, and fragments generated from explosions, collisions, or faulty payload assembly.

Loading next visibility...
Identifier
15330, 1984-069D
Orbit
LEO
Country
Flag of CISCIS
Related business
Manufacturer
Kometa
Mission
Spacecraft
Bus & Motor
US-A REACTOR CORE, Unknown motor
Mass
Wet unknown, 53 kg dry
Launch date (UTC)
1984-06-29 (41 years ago)
Launch vehicle
Unknown
Launch site
Tyuratam Missile And Space Complex (TTMTR)
Object type
Payload
Rocket body
Debris
Shape & HBR
Unknown
Radar Cross Section
Medium (>0.1 m² and <1 m²)

Expand to show TLE details & history
Last TLE update: 16 hours ago

TLE from 16 hours ago
0 COSMOS 1579 FUEL CORE
1 15330U 84069D   25349.37961987 -.00000080  00000-0  77815-5 0  9994
2 15330  65.0560 307.5187 0031536 358.6986  81.8971 13.89914825106438
Epoch: 2025-12-15T09:06Z
TLE epoch observation values (Epoch: 2025-12-15T09:06:39.156Z)
Latitude
63.68132°
Longitude
155.8711°
Altitude
935.737 km
Speed
7.392 km/s
True Right ascension
01h 07m 15s
True Declination
63° 32' 52"
Sunlit
Object was in full shadow at epoch
Visualization orbit readout
Latitude
Unknown
Longitude
Unknown
Altitude
Unknown
Speed
Unknown
Apparent Right ascension
Unknown
Apparent Declination
Unknown
Sunlit
N/A
Visualization observer readout
Local Sidereal Time
23:20:58
Azimuth
Unknown
Elevation
Unknown
Doppler factor
Unknown
Orbital elements
Apogee altitude
950.568 km
Perigee altitude
904.489 km
Semi-major axis
7,305.665 km
Eccentricity
0.00315
Inclination
65.056°
RAAN
307.5187°
Arg. of periapsis
358.6986°
True anomaly
82.25506°
Mean anomaly
81.8971°
Eccentric anomaly
82.07606°
Mean motion
3.47579 °/min
Orbital period
103.57 mins
BSTAR
0.0000077815
Loading maneuver chart data...
Computing Atmospheric mass density...

Documentation

Showing up to 5 results
|